Location: New Frontier Mobile Home Park
(32.8448°N, 116.9675°W)
Time: 23:07:24
(UTC+00:00)

Cosmos 1825 - Pass Details

Date: 14 July 2020
Orbit: 503 x 508 km, 82.5° (Epoch: 05 August)

Event Time Altitude Azimuth Distance (km) Brightness Sun altitude
Exits shadow 05:00:41 17° 51° (NE) 1,363 4.3 -21.6°
Drops below altitude 10° 05:01:53 10° 36° (NE) 1,728 5.0 -21.8°
Sets 05:04:18 0° 22° (NNE) 2,618 6.1 -22.2°
